Regional Weather Roundup
Issued by NWS

Home | Current Version | Previous Version | Graphics & Text | Print | Product List | Glossary On
Versions: 1 2 3 4 5 6 7 8 9 10 11 12 13 14 15 16 17 18 19 20 21 22 23 24 25 26 27 28 29 30 31 32 33 34 35 36 37 38 39 40 41 42 43 44 45 46 47 48 49 50
000
ASUS43 KFSD 120302
RWRSD

WEATHER ROUNDUP FOR SOUTH DAKOTA
NATIONAL WEATHER SERVICE SIOUX FALLS SD
900 PM CST MON DEC 11 2017

NOTE: "FAIR" INDICATES FEW OR NO CLOUDS BELOW 12,000 FEET WITH NO
SIGNIFICANT WEATHER AND/OR OBSTRUCTIONS TO VISIBILITY.


SDZ001>005-009-010-012>017-120400-
NORTHWEST AND NORTH CENTRAL SOUTH DAKOTA

CITY           SKY/WX    TMP DP  RH WIND       PRES   REMARKS
BUFFALO          N/A     24  21  88 NW10      30.30F WCI  14
FAITH            N/A     36  27  69 NW16      30.35F
MOBRIDGE       MOCLDY    29  23  78 NE3       30.32F
$$

SDZ012>016-024>037-041>051-057-063-072>074-120400-
SOUTHWEST AND SOUTH CENTRAL SOUTH DAKOTA

CITY           SKY/WX    TMP DP  RH WIND       PRES   REMARKS
RAPID CTY ARPT CLOUDY    25  20  81 N10       30.39R WCI  15
PIERRE         CLOUDY    31  27  85 NW10      30.36S WCI  22
CUSTER         CLOUDY    26   3  37 S6        30.34R WCI  19
PHILIP         CLOUDY    38  28  67 NW6       30.40R
PINE RIDGE     CLEAR     26  23  88 SW3       30.40S
SPEARFISH        N/A     34  16  47 W15       30.37F WCI  24
WINNER         CLOUDY    36  31  82 NW10      30.37R
$$

SDZ004>011-016>023-039-040-120400-
NORTHEAST SOUTH DAKOTA

CITY           SKY/WX    TMP DP  RH WIND       PRES   REMARKS
ABERDEEN       CLOUDY    14  11  87 NW5       30.37R WCI   6
WATERTOWN      CLEAR     15  12  88 N12       30.30R WCI   2
BROOKINGS      CLEAR     16  13  88 N9        30.31R WCI   4
SISSETON         N/A     13  11  92 NW9       30.34R WCI   1
$$

SDZ017-020-022-023-036>040-048>070-120400-
SOUTHEAST SOUTH DAKOTA

CITY           SKY/WX    TMP DP  RH WIND       PRES   REMARKS
SIOUX FALLS    CLEAR     20  15  81 N15       30.32R WCI   6
HURON          CLEAR     16  14  92 N7        30.37R WCI   6
CHAMBERLAIN    CLEAR     28  25  89 N3        30.38R
MITCHELL       CLEAR     21  17  84 NW9       30.38R WCI  11
YANKTON        CLEAR     24  18  77 NW17      30.36R WCI  11
$$

ABBREVIATIONS USED IN REMARKS
   TC - TEMPERATURE IN CELSIUS
  WCI - WIND CHILL INDEX
   HX - HEAT INDEX
  VSB - VISIBILITY





USA.gov is the U.S. government's official web portal to all federal, state and local government web resources and services.